Regional Weather Roundup
Issued by NWS

Home | Current Version | Previous Version | Graphics & Text | Print | Product List | Glossary On
Versions: 1 2 3 4 5 6 7 8 9 10 11 12 13 14 15 16 17 18 19 20 21 22 23 24 25 26 27 28 29 30 31 32 33 34 35 36 37 38 39 40 41 42 43 44 45 46 47 48 49 50
292
ASUS44 KJAN 011610
RWRMS

MISSISSIPPI HOURLY WEATHER ROUNDUP
NATIONAL WEATHER SERVICE JACKSON MS
1100 AM CDT WED APR 01 2015

NOTE: "FAIR: INDICATES FEW OR NO CLOUDS BELOW 12,000 FEET WITH NO
SIGNIFICANT WEATHER AND/OR OBSTRUCTIONS TO VISIBILITY.

MSZ001>002-007>008-010>013-018>021-025>028-034>036-011700-
NORTHWEST MISSISSIPPI

CITY           SKY/WX    TMP DP  RH WIND       PRES   REMARKS
CLARKSDALE     FAIR      72  66  83 S10       30.04S
CLEVELAND      CLOUDY    67  65  96 S13       30.04S
GREENWOOD      CLOUDY    67  62  84 SW12      30.07R HAZE
GREENVILLE     CLOUDY    68  64  87 SW7       30.04S FOG
OLIVE BRANCH   PTSUNNY   66  64  94 SE8       30.05F
OXFORD         FAIR      68  59  73 S7        30.07S
TUNICA         PTSUNNY   68  61  77 SE12      30.03F
$$

MSZ003>006-009-014>017-022>024-029>033-037>039-011700-
NORTHEAST MISSISSIPPI

CITY           SKY/WX    TMP DP  RH WIND       PRES   REMARKS
COLUMBUS AFB   MOSUNNY   74  58  58 SW9       30.07S
CORINTH        FAIR      66  57  72 SE7       30.08S
GOLDN TRIANGLE PTSUNNY   72  59  64 S10       30.08R
STARKVILLE     FAIR      72  61  68 SW6       30.08S
TUPELO         MOSUNNY   68  59  73 SE7       30.08S
$$

MSZ040-058-011700-
CENTRAL MISSISSIPPI

CITY           SKY/WX    TMP DP  RH WIND       PRES   REMARKS
JACKSON INTL   CLOUDY    69  62  78 W5        30.10R
JACKSON HAWKNS CLOUDY    71  62  73 W6        30.10S
MERIDIAN KEY   CLOUDY    70  61  73 SW8       30.11R
MERIDIAN NAS   MOSUNNY   74  60  61 VRB3      30.10R
RAYMOND        PTSUNNY   72  66  83 W7        30.09R
VICKSBURG      PTSUNNY   74  63  68 S5        30.07F
$$

MSZ059>079-011700-
SOUTH MISSISSIPPI

CITY           SKY/WX    TMP DP  RH WIND       PRES   REMARKS
BROOKHAVEN     PTSUNNY   72  66  83 S8        30.12S
HATTIESBURG      N/A    N/A N/A N/A MISG      30.12S
MCCOMB         CLOUDY    71  65  81 CALM      30.11S
NATCHEZ        CLOUDY    70  64  83 S7        30.10R
PINE BELT      MOSUNNY   72  43  35 NW5       30.13S
$$

MSZ080>082-011700-
COASTAL MISSISSIPPI

CITY           SKY/WX    TMP DP  RH WIND       PRES   REMARKS
BAY ST LOUIS   MOSUNNY   75  57  53 MISG      30.12S
BILOXI         SUNNY     74  65  73 S8        30.12S
PASCAGOULA     MOSUNNY   77  62  59 NW5       30.12S
GULFPORT         N/A     75  65  70 S10       30.11S
$$



USA.gov is the U.S. government's official web portal to all federal, state and local government web resources and services.